Time,TemperatureF,DewpointF,PressureIn,WindDirection,WindDirectionDegrees,WindSpeedMPH,WindSpeedGustMPH,Humidity,HourlyPrecipIn,Conditions,Clouds,dailyrainin,SoftwareType,DateUTC
2013-04-30 00:01:00,57.9,53.5,29.03,SSE,157,2.0,2.0,84,0.00,,,0.00,Rainwise IP-100,2013-04-30 04:01:00,
2013-04-30 00:02:00,58.0,53.5,29.03,SSE,157,2.0,2.0,84,0.00,,,0.00,Rainwise IP-100,2013-04-30 04:02:00,
2013-04-30 00:03:00,58.2,53.5,29.03,SSE,157,2.0,2.0,83,0.00,,,0.00,Rainwise IP-100,2013-04-30 04:03:00,
2013-04-30 00:04:00,58.1,53.5,29.03,SSE,157,2.0,2.0,83,0.00,,,0.00,Rainwise IP-100,2013-04-30 04:04:00,
2013-04-30 00:09:00,58.1,53.5,29.03,SSE,157,1.0,2.0,84,0.00,,,0.00,Rainwise IP-100,2013-04-30 04:09:00,
2013-04-30 00:13:00,58.3,53.5,29.03,SSE,157,2.0,2.0,83,0.00,,,0.00,Rainwise IP-100,2013-04-30 04:13:00,
2013-04-30 00:18:00,58.2,53.5,29.03,SE,135,2.0,2.0,83,0.00,,,0.00,Rainwise IP-100,2013-04-30 04:18:00,
2013-04-30 00:23:00,58.3,53.0,29.03,SE,135,2.0,4.0,82,0.00,,,0.00,Rainwise IP-100,2013-04-30 04:23:00,
2013-04-30 00:28:00,58.4,53.0,29.03,SE,135,2.0,4.0,81,0.00,,,0.00,Rainwise IP-100,2013-04-30 04:28:00,
2013-04-30 00:33:00,58.3,53.0,29.03,SSE,157,1.0,4.0,82,0.00,,,0.00,Rainwise IP-100,2013-04-30 04:33:00,
2013-04-30 00:39:00,57.9,53.5,29.04,SSE,157,2.0,3.0,83,0.00,,,0.00,Rainwise IP-100,2013-04-30 04:39:00,
2013-04-30 00:44:00,57.9,53.0,29.04,SSE,157,2.0,4.0,82,0.00,,,0.00,Rainwise IP-100,2013-04-30 04:44:00,
2013-04-30 00:49:00,58.0,53.0,29.04,SSE,157,3.0,6.0,82,0.00,,,0.00,Rainwise IP-100,2013-04-30 04:49:00,
2013-04-30 00:54:00,58.1,53.0,29.04,SSE,157,2.0,6.0,82,0.00,,,0.00,Rainwise IP-100,2013-04-30 04:54:00,
2013-04-30 00:59:00,58.1,53.0,29.04,SSE,157,2.0,5.0,82,0.00,,,0.00,Rainwise IP-100,2013-04-30 04:59:00,
2013-04-30 01:04:00,58.1,53.5,29.04,South,180,1.0,4.0,83,0.00,,,0.00,Rainwise IP-100,2013-04-30 05:04:00,
2013-04-30 01:09:00,57.9,53.0,29.04,SSE,157,1.0,3.0,82,0.00,,,0.00,Rainwise IP-100,2013-04-30 05:09:00,
2013-04-30 01:14:00,57.9,53.5,29.05,South,180,2.0,3.0,83,0.00,,,0.00,Rainwise IP-100,2013-04-30 05:14:00,
2013-04-30 01:19:00,57.9,53.5,29.05,SSE,157,2.0,2.0,84,0.00,,,0.00,Rainwise IP-100,2013-04-30 05:19:00,
2013-04-30 01:24:00,57.8,53.5,29.05,SE,135,2.0,3.0,84,0.00,,,0.00,Rainwise IP-100,2013-04-30 05:24:00,
2013-04-30 01:29:00,57.8,53.5,29.05,South,180,2.0,4.0,84,0.00,,,0.00,Rainwise IP-100,2013-04-30 05:29:00,
2013-04-30 01:34:00,57.8,53.5,29.04,South,180,2.0,4.0,84,0.00,,,0.00,Rainwise IP-100,2013-04-30 05:34:00,
2013-04-30 01:40:00,57.8,53.5,29.05,SSE,157,2.0,4.0,84,0.00,,,0.00,Rainwise IP-100,2013-04-30 05:40:00,
2013-04-30 01:45:00,57.8,53.5,29.05,SSE,157,2.0,4.0,84,0.00,,,0.00,Rainwise IP-100,2013-04-30 05:45:00,
2013-04-30 01:50:00,57.8,53.5,29.05,South,180,2.0,6.0,84,0.00,,,0.00,Rainwise IP-100,2013-04-30 05:50:00,
2013-04-30 01:55:00,57.8,53.5,29.05,SSE,157,2.0,4.0,84,0.00,,,0.00,Rainwise IP-100,2013-04-30 05:55:00,
2013-04-30 02:00:00,57.9,53.5,29.05,SSE,157,2.0,4.0,84,0.00,,,0.00,Rainwise IP-100,2013-04-30 06:00:00,
2013-04-30 02:05:00,57.8,53.5,29.05,South,180,4.0,4.0,84,0.00,,,0.00,Rainwise IP-100,2013-04-30 06:05:00,
2013-04-30 02:10:00,57.8,53.5,29.05,South,180,4.0,6.0,84,0.00,,,0.00,Rainwise IP-100,2013-04-30 06:10:00,
2013-04-30 02:15:00,57.9,53.5,29.05,SSE,157,3.0,7.0,84,0.00,,,0.00,Rainwise IP-100,2013-04-30 06:15:00,
2013-04-30 02:20:00,57.9,53.5,29.05,South,180,2.0,4.0,84,0.00,,,0.00,Rainwise IP-100,2013-04-30 06:20:00,
2013-04-30 02:25:00,57.9,54.0,29.05,South,180,4.0,5.0,85,0.00,,,0.00,Rainwise IP-100,2013-04-30 06:25:00,
2013-04-30 02:30:00,57.9,54.0,29.05,SSE,157,3.0,5.0,85,0.00,,,0.00,Rainwise IP-100,2013-04-30 06:30:00,
2013-04-30 02:36:00,57.7,53.5,29.05,South,180,3.0,4.0,86,0.00,,,0.00,Rainwise IP-100,2013-04-30 06:36:00,
2013-04-30 02:41:00,57.5,54.0,29.05,SSE,157,1.0,4.0,88,0.00,,,0.00,Rainwise IP-100,2013-04-30 06:41:00,
2013-04-30 02:46:00,57.3,54.5,29.05,SSE,157,2.0,4.0,89,0.00,,,0.00,Rainwise IP-100,2013-04-30 06:46:00,
2013-04-30 02:51:00,57.2,54.0,29.05,South,180,3.0,5.0,89,0.00,,,0.00,Rainwise IP-100,2013-04-30 06:51:00,
2013-04-30 02:56:00,57.2,54.0,29.05,SSE,157,2.0,3.0,89,0.00,,,0.00,Rainwise IP-100,2013-04-30 06:56:00,
2013-04-30 03:01:00,57.2,54.0,29.05,South,180,3.0,4.0,89,0.00,,,0.00,Rainwise IP-100,2013-04-30 07:01:00,
2013-04-30 03:06:00,57.2,54.0,29.05,SSE,157,2.0,4.0,89,0.00,,,0.00,Rainwise IP-100,2013-04-30 07:06:00,
2013-04-30 03:11:00,57.4,54.5,29.05,SSE,157,2.0,5.0,89,0.00,,,0.00,Rainwise IP-100,2013-04-30 07:11:00,
2013-04-30 03:16:00,57.4,54.5,29.05,SSE,157,2.0,4.0,89,0.00,,,0.00,Rainwise IP-100,2013-04-30 07:16:00,
2013-04-30 03:21:00,57.3,54.5,29.05,South,180,3.0,3.0,89,0.00,,,0.00,Rainwise IP-100,2013-04-30 07:21:00,
2013-04-30 03:26:00,57.5,54.0,29.05,SSE,157,1.0,4.0,88,0.00,,,0.00,Rainwise IP-100,2013-04-30 07:26:00,
2013-04-30 03:31:00,57.3,54.0,29.05,South,180,2.0,3.0,88,0.00,,,0.00,Rainwise IP-100,2013-04-30 07:31:00,
2013-04-30 03:37:00,57.3,54.0,29.05,South,180,1.0,3.0,88,0.00,,,0.00,Rainwise IP-100,2013-04-30 07:37:00,
2013-04-30 03:42:00,57.2,54.0,29.05,South,180,1.0,2.0,89,0.00,,,0.00,Rainwise IP-100,2013-04-30 07:42:00,
2013-04-30 03:47:00,57.2,54.0,29.05,South,180,1.0,3.0,89,0.00,,,0.00,Rainwise IP-100,2013-04-30 07:47:00,
2013-04-30 03:52:00,57.2,54.0,29.05,SSE,157,1.0,2.0,89,0.00,,,0.00,Rainwise IP-100,2013-04-30 07:52:00,
2013-04-30 03:57:00,57.3,54.0,29.05,SE,135,2.0,2.0,88,0.00,,,0.00,Rainwise IP-100,2013-04-30 07:57:00,
2013-04-30 04:02:00,57.3,54.5,29.05,SE,135,1.0,2.0,89,0.00,,,0.00,Rainwise IP-100,2013-04-30 08:02:00,
2013-04-30 04:07:00,57.2,54.0,29.06,SSE,157,2.0,3.0,89,0.00,,,0.00,Rainwise IP-100,2013-04-30 08:07:00,
2013-04-30 04:12:00,57.1,54.0,29.06,SSE,157,2.0,3.0,90,0.00,,,0.00,Rainwise IP-100,2013-04-30 08:12:00,
2013-04-30 04:17:00,57.2,54.0,29.06,SSE,157,2.0,3.0,90,0.00,,,0.00,Rainwise IP-100,2013-04-30 08:17:00,
2013-04-30 04:22:00,57.2,54.0,29.06,SSE,157,2.0,4.0,89,0.00,,,0.00,Rainwise IP-100,2013-04-30 08:22:00,
2013-04-30 04:27:00,57.2,54.0,29.06,SE,135,2.0,3.0,89,0.00,,,0.00,Rainwise IP-100,2013-04-30 08:27:00,
2013-04-30 04:32:00,57.1,54.0,29.06,SE,135,2.0,3.0,89,0.00,,,0.00,Rainwise IP-100,2013-04-30 08:32:00,
2013-04-30 04:38:00,57.2,54.0,29.06,SSE,157,2.0,4.0,90,0.00,,,0.00,Rainwise IP-100,2013-04-30 08:38:00,
2013-04-30 04:43:00,57.2,54.0,29.06,SE,135,2.0,4.0,89,0.00,,,0.00,Rainwise IP-100,2013-04-30 08:43:00,
2013-04-30 04:48:00,57.2,54.0,29.06,SSE,157,2.0,4.0,90,0.00,,,0.00,Rainwise IP-100,2013-04-30 08:48:00,
2013-04-30 04:53:00,57.5,54.5,29.07,SSE,157,2.0,6.0,89,0.00,,,0.00,Rainwise IP-100,2013-04-30 08:53:00,
2013-04-30 04:58:00,57.7,54.5,29.07,South,180,3.0,4.0,89,0.00,,,0.00,Rainwise IP-100,2013-04-30 08:58:00,
2013-04-30 05:03:00,57.8,55.0,29.07,SSE,157,3.0,6.0,89,0.00,,,0.00,Rainwise IP-100,2013-04-30 09:03:00,
2013-04-30 05:08:00,57.8,54.5,29.07,South,180,4.0,6.0,88,0.00,,,0.00,Rainwise IP-100,2013-04-30 09:08:00,
2013-04-30 05:13:00,57.9,54.5,29.07,South,180,2.0,6.0,88,0.00,,,0.00,Rainwise IP-100,2013-04-30 09:13:00,
2013-04-30 05:18:00,57.9,54.5,29.08,South,180,3.0,7.0,88,0.00,,,0.00,Rainwise IP-100,2013-04-30 09:18:00,
2013-04-30 05:23:00,58.0,54.5,29.08,South,180,2.0,5.0,88,0.00,,,0.00,Rainwise IP-100,2013-04-30 09:23:00,
2013-04-30 05:28:00,58.1,54.5,29.08,SSE,157,2.0,6.0,87,0.00,,,0.00,Rainwise IP-100,2013-04-30 09:28:00,
2013-04-30 05:33:00,58.2,54.5,29.08,SE,135,2.0,5.0,87,0.00,,,0.00,Rainwise IP-100,2013-04-30 09:33:00,
2013-04-30 05:39:00,58.1,54.5,29.08,SSE,157,2.0,3.0,87,0.00,,,0.00,Rainwise IP-100,2013-04-30 09:39:00,
2013-04-30 05:44:00,58.1,54.5,29.08,SSE,157,2.0,4.0,88,0.00,,,0.00,Rainwise IP-100,2013-04-30 09:44:00,
2013-04-30 05:49:00,58.1,54.5,29.08,South,180,2.0,3.0,87,0.00,,,0.00,Rainwise IP-100,2013-04-30 09:49:00,
2013-04-30 05:54:00,58.1,54.5,29.09,SSE,157,2.0,4.0,88,0.00,,,0.00,Rainwise IP-100,2013-04-30 09:54:00,
2013-04-30 05:59:00,58.1,54.5,29.09,SSE,157,2.0,4.0,88,0.00,,,0.00,Rainwise IP-100,2013-04-30 09:59:00,
2013-04-30 06:04:00,58.1,54.5,29.09,South,180,1.0,4.0,88,0.00,,,0.00,Rainwise IP-100,2013-04-30 10:04:00,
2013-04-30 06:09:00,58.1,54.5,29.09,SSE,157,2.0,3.0,88,0.00,,,0.00,Rainwise IP-100,2013-04-30 10:09:00,
2013-04-30 06:14:00,58.3,54.5,29.09,SSE,157,2.0,4.0,87,0.00,,,0.00,Rainwise IP-100,2013-04-30 10:14:00,
2013-04-30 06:19:00,58.3,54.5,29.09,SSE,157,2.0,4.0,87,0.00,,,0.00,Rainwise IP-100,2013-04-30 10:19:00,
2013-04-30 06:24:00,58.3,54.5,29.10,South,180,2.0,4.0,88,0.00,,,0.00,Rainwise IP-100,2013-04-30 10:24:00,
2013-04-30 06:29:00,58.3,54.5,29.10,South,180,1.0,4.0,88,0.00,,,0.00,Rainwise IP-100,2013-04-30 10:29:00,
2013-04-30 06:34:00,58.3,54.5,29.10,South,180,3.0,4.0,88,0.00,,,0.00,Rainwise IP-100,2013-04-30 10:34:00,
2013-04-30 06:40:00,58.3,54.5,29.10,South,180,3.0,6.0,87,0.00,,,0.00,Rainwise IP-100,2013-04-30 10:40:00,
2013-04-30 06:45:00,58.4,54.5,29.10,SSE,157,2.0,6.0,87,0.00,,,0.00,Rainwise IP-100,2013-04-30 10:45:00,
2013-04-30 06:50:00,58.5,55.0,29.11,South,180,2.0,4.0,87,0.00,,,0.00,Rainwise IP-100,2013-04-30 10:50:00,
2013-04-30 06:55:00,58.5,54.5,29.11,South,180,2.0,6.0,86,0.00,,,0.00,Rainwise IP-100,2013-04-30 10:55:00,
2013-04-30 07:00:00,58.6,54.5,29.11,South,180,3.0,4.0,86,0.00,,,0.00,Rainwise IP-100,2013-04-30 11:00:00,
2013-04-30 07:05:00,58.6,55.0,29.11,South,180,4.0,5.0,87,0.00,,,0.00,Rainwise IP-100,2013-04-30 11:05:00,
2013-04-30 07:10:00,58.7,55.0,29.11,South,180,3.0,7.0,87,0.00,,,0.00,Rainwise IP-100,2013-04-30 11:10:00,
2013-04-30 07:15:00,58.8,54.5,29.11,South,180,7.0,7.0,85,0.00,,,0.00,Rainwise IP-100,2013-04-30 11:15:00,
2013-04-30 07:20:00,58.9,54.5,29.12,South,180,4.0,7.0,85,0.00,,,0.00,Rainwise IP-100,2013-04-30 11:20:00,
2013-04-30 07:25:00,59.1,54.0,29.12,South,180,6.0,6.0,84,0.00,,,0.00,Rainwise IP-100,2013-04-30 11:25:00,
2013-04-30 07:30:00,59.2,54.0,29.12,South,180,5.0,7.0,84,0.00,,,0.00,Rainwise IP-100,2013-04-30 11:30:00,
2013-04-30 07:35:00,59.4,54.5,29.13,South,180,4.0,7.0,85,0.00,,,0.00,Rainwise IP-100,2013-04-30 11:35:00,
2013-04-30 07:41:00,59.6,54.5,29.13,South,180,6.0,7.0,85,0.00,,,0.00,Rainwise IP-100,2013-04-30 11:41:00,
2013-04-30 07:46:00,59.8,55.0,29.13,South,180,6.0,7.0,84,0.00,,,0.00,Rainwise IP-100,2013-04-30 11:46:00,
2013-04-30 07:51:00,60.0,54.5,29.13,South,180,6.0,7.0,83,0.00,,,0.00,Rainwise IP-100,2013-04-30 11:51:00,
2013-04-30 07:56:00,60.2,54.5,29.13,South,180,6.0,8.0,82,0.00,,,0.00,Rainwise IP-100,2013-04-30 11:56:00,
2013-04-30 08:01:00,60.3,54.5,29.14,South,180,4.0,9.0,81,0.00,,,0.00,Rainwise IP-100,2013-04-30 12:01:00,
2013-04-30 08:06:00,60.3,54.5,29.14,South,180,6.0,7.0,81,0.00,,,0.00,Rainwise IP-100,2013-04-30 12:06:00,
2013-04-30 08:11:00,60.4,54.5,29.14,South,180,4.0,9.0,82,0.00,,,0.00,Rainwise IP-100,2013-04-30 12:11:00,
2013-04-30 08:16:00,60.5,54.5,29.14,South,180,6.0,9.0,81,0.00,,,0.00,Rainwise IP-100,2013-04-30 12:16:00,
2013-04-30 08:21:00,60.5,54.5,29.14,South,180,6.0,8.0,81,0.00,,,0.00,Rainwise IP-100,2013-04-30 12:21:00,
2013-04-30 08:26:00,60.6,54.0,29.14,South,180,4.0,7.0,80,0.00,,,0.00,Rainwise IP-100,2013-04-30 12:26:00,
2013-04-30 08:31:00,60.8,54.5,29.14,South,180,6.0,8.0,80,0.00,,,0.00,Rainwise IP-100,2013-04-30 12:31:00,
2013-04-30 08:36:00,61.0,55.0,29.14,South,180,4.0,11.0,81,0.00,,,0.00,Rainwise IP-100,2013-04-30 12:36:00,
2013-04-30 08:42:00,61.3,54.5,29.15,SSE,157,5.0,6.0,78,0.00,,,0.00,Rainwise IP-100,2013-04-30 12:42:00,
2013-04-30 08:47:00,61.7,54.5,29.15,South,180,7.0,10.0,79,0.00,,,0.00,Rainwise IP-100,2013-04-30 12:47:00,
2013-04-30 08:52:00,62.2,55.0,29.15,South,180,6.0,10.0,79,0.00,,,0.00,Rainwise IP-100,2013-04-30 12:52:00,
2013-04-30 08:57:00,62.8,55.0,29.15,SSE,157,6.0,9.0,75,0.00,,,0.00,Rainwise IP-100,2013-04-30 12:57:00,
2013-04-30 09:02:00,63.6,56.0,29.16,South,180,6.0,11.0,77,0.00,,,0.00,Rainwise IP-100,2013-04-30 13:02:00,
2013-04-30 09:07:00,64.8,54.5,29.17,SSW,202,9.0,13.0,69,0.00,,,0.00,Rainwise IP-100,2013-04-30 13:07:00,
2013-04-30 09:12:00,64.5,54.5,29.17,SSE,157,6.0,16.0,71,0.00,,,0.00,Rainwise IP-100,2013-04-30 13:12:00,
2013-04-30 09:17:00,64.4,54.5,29.17,South,180,10.0,16.0,70,0.00,,,0.00,Rainwise IP-100,2013-04-30 13:17:00,
2013-04-30 09:22:00,64.5,54.5,29.17,SSE,157,11.0,15.0,70,0.00,,,0.00,Rainwise IP-100,2013-04-30 13:22:00,
2013-04-30 09:27:00,64.6,55.0,29.17,South,180,12.0,14.0,72,0.00,,,0.00,Rainwise IP-100,2013-04-30 13:27:00,
2013-04-30 09:32:00,64.7,54.5,29.17,SSE,157,6.0,13.0,71,0.00,,,0.00,Rainwise IP-100,2013-04-30 13:32:00,
2013-04-30 09:37:00,64.6,54.5,29.17,South,180,9.0,15.0,70,0.00,,,0.00,Rainwise IP-100,2013-04-30 13:37:00,
2013-04-30 09:43:00,64.4,55.0,29.17,SE,135,9.0,15.0,72,0.00,,,0.00,Rainwise IP-100,2013-04-30 13:43:00,
2013-04-30 09:48:00,64.5,56.0,29.17,South,180,8.0,10.0,74,0.00,,,0.00,Rainwise IP-100,2013-04-30 13:48:00,
2013-04-30 09:53:00,64.7,54.5,29.17,South,180,11.0,13.0,71,0.00,,,0.00,Rainwise IP-100,2013-04-30 13:53:00,
2013-04-30 09:58:00,64.4,54.5,29.17,South,180,7.0,13.0,70,0.00,,,0.00,Rainwise IP-100,2013-04-30 13:58:00,
2013-04-30 10:03:00,64.9,57.0,29.17,South,180,7.0,10.0,75,0.00,,,0.00,Rainwise IP-100,2013-04-30 14:03:00,
2013-04-30 10:08:00,65.2,54.5,29.18,SE,135,4.0,12.0,69,0.00,,,0.00,Rainwise IP-100,2013-04-30 14:08:00,
2013-04-30 10:13:00,64.7,54.5,29.17,SSE,157,7.0,11.0,71,0.00,,,0.00,Rainwise IP-100,2013-04-30 14:13:00,
2013-04-30 10:18:00,64.7,55.0,29.18,SSE,157,5.0,11.0,72,0.00,,,0.00,Rainwise IP-100,2013-04-30 14:18:00,
2013-04-30 10:23:00,64.8,54.5,29.18,South,180,10.0,10.0,70,0.00,,,0.00,Rainwise IP-100,2013-04-30 14:23:00,
2013-04-30 10:28:00,64.8,55.0,29.18,South,180,4.0,11.0,71,0.00,,,0.00,Rainwise IP-100,2013-04-30 14:28:00,
2013-04-30 10:33:00,64.9,54.5,29.18,SSE,157,4.0,9.0,70,0.00,,,0.00,Rainwise IP-100,2013-04-30 14:33:00,
2013-04-30 10:38:00,64.9,56.0,29.18,South,180,8.0,9.0,72,0.00,,,0.00,Rainwise IP-100,2013-04-30 14:38:00,
2013-04-30 10:44:00,65.2,54.5,29.18,SSW,202,4.0,8.0,69,0.00,,,0.00,Rainwise IP-100,2013-04-30 14:44:00,
2013-04-30 10:49:00,65.3,54.5,29.19,SSE,157,4.0,9.0,69,0.00,,,0.00,Rainwise IP-100,2013-04-30 14:49:00,
2013-04-30 10:54:00,65.3,55.0,29.19,South,180,4.0,7.0,70,0.00,,,0.00,Rainwise IP-100,2013-04-30 14:54:00,
2013-04-30 10:59:00,65.6,54.0,29.19,South,180,5.0,6.0,67,0.00,,,0.00,Rainwise IP-100,2013-04-30 14:59:00,
2013-04-30 11:04:00,65.8,54.5,29.19,SE,135,2.0,6.0,67,0.00,,,0.00,Rainwise IP-100,2013-04-30 15:04:00,
2013-04-30 11:09:00,66.2,54.5,29.19,South,180,3.0,7.0,66,0.00,,,0.00,Rainwise IP-100,2013-04-30 15:09:00,
2013-04-30 11:14:00,66.1,53.5,29.20,SSE,157,3.0,5.0,64,0.00,,,0.00,Rainwise IP-100,2013-04-30 15:14:00,
2013-04-30 11:19:00,66.6,55.0,29.20,SE,135,2.0,7.0,66,0.00,,,0.00,Rainwise IP-100,2013-04-30 15:19:00,
2013-04-30 11:24:00,66.9,54.0,29.20,South,180,4.0,6.0,63,0.00,,,0.00,Rainwise IP-100,2013-04-30 15:24:00,
2013-04-30 11:29:00,66.8,55.0,29.20,SSE,157,2.0,7.0,66,0.00,,,0.00,Rainwise IP-100,2013-04-30 15:29:00,
2013-04-30 11:34:00,66.9,57.0,29.20,SSE,157,3.0,5.0,70,0.00,,,0.00,Rainwise IP-100,2013-04-30 15:34:00,
2013-04-30 11:39:00,66.9,56.0,29.20,South,180,3.0,4.0,67,0.00,,,0.00,Rainwise IP-100,2013-04-30 15:39:00,
2013-04-30 11:45:00,67.0,55.0,29.20,SW,225,4.0,4.0,65,0.00,,,0.00,Rainwise IP-100,2013-04-30 15:45:00,
2013-04-30 11:50:00,67.5,55.0,29.21,SE,135,3.0,5.0,64,0.00,,,0.00,Rainwise IP-100,2013-04-30 15:50:00,
2013-04-30 11:55:00,67.7,54.5,29.21,WSW,247,2.0,7.0,63,0.00,,,0.00,Rainwise IP-100,2013-04-30 15:55:00,
2013-04-30 12:00:00,68.5,54.5,29.21,SE,135,2.0,5.0,62,0.00,,,0.00,Rainwise IP-100,2013-04-30 16:00:00,
2013-04-30 12:05:00,69.1,54.5,29.22,West,270,1.0,5.0,60,0.00,,,0.00,Rainwise IP-100,2013-04-30 16:05:00,
2013-04-30 12:10:00,69.0,55.0,29.22,SSW,202,3.0,6.0,62,0.00,,,0.00,Rainwise IP-100,2013-04-30 16:10:00,
2013-04-30 12:15:00,68.9,53.0,29.22,SW,225,2.0,8.0,57,0.00,,,0.00,Rainwise IP-100,2013-04-30 16:15:00,
2013-04-30 12:20:00,69.2,54.0,29.22,South,180,1.0,6.0,58,0.00,,,0.00,Rainwise IP-100,2013-04-30 16:20:00,
2013-04-30 12:25:00,68.9,54.0,29.22,SW,225,2.0,2.0,59,0.00,,,0.00,Rainwise IP-100,2013-04-30 16:25:00,
2013-04-30 12:30:00,68.2,55.0,29.22,West,270,3.0,6.0,64,0.00,,,0.00,Rainwise IP-100,2013-04-30 16:30:00,
2013-04-30 12:35:00,68.2,54.0,29.22,NW,315,2.0,6.0,61,0.00,,,0.00,Rainwise IP-100,2013-04-30 16:35:00,
2013-04-30 12:41:00,68.3,55.0,29.22,West,270,2.0,5.0,63,0.00,,,0.00,Rainwise IP-100,2013-04-30 16:41:00,
2013-04-30 12:46:00,68.2,54.5,29.22,NW,315,4.0,7.0,63,0.00,,,0.00,Rainwise IP-100,2013-04-30 16:46:00,
2013-04-30 12:51:00,67.9,54.0,29.22,West,270,6.0,7.0,61,0.00,,,0.00,Rainwise IP-100,2013-04-30 16:51:00,
2013-04-30 12:56:00,67.9,54.5,29.22,WNW,292,1.0,6.0,63,0.00,,,0.00,Rainwise IP-100,2013-04-30 16:56:00,
2013-04-30 13:01:00,67.8,54.0,29.21,WNW,292,2.0,8.0,61,0.00,,,0.00,Rainwise IP-100,2013-04-30 17:01:00,
2013-04-30 13:06:00,67.9,56.5,29.22,West,270,2.0,5.0,66,0.00,,,0.00,Rainwise IP-100,2013-04-30 17:06:00,
2013-04-30 13:11:00,68.2,54.5,29.21,West,270,2.0,4.0,63,0.00,,,0.00,Rainwise IP-100,2013-04-30 17:11:00,
2013-04-30 13:16:00,68.4,53.5,29.21,SSE,157,1.0,4.0,59,0.00,,,0.00,Rainwise IP-100,2013-04-30 17:16:00,
2013-04-30 13:21:00,68.4,54.5,29.21,East,90,1.0,2.0,61,0.00,,,0.00,Rainwise IP-100,2013-04-30 17:21:00,
2013-04-30 13:26:00,69.7,55.0,29.22,ESE,112,1.0,2.0,60,0.00,,,0.00,Rainwise IP-100,2013-04-30 17:26:00,
2013-04-30 13:31:00,70.9,56.5,29.23,ENE,67,1.0,2.0,61,0.00,,,0.00,Rainwise IP-100,2013-04-30 17:31:00,
2013-04-30 13:36:00,70.7,54.5,29.23,SSW,202,4.0,6.0,57,0.00,,,0.00,Rainwise IP-100,2013-04-30 17:36:00,
2013-04-30 13:42:00,71.3,55.0,29.24,West,270,1.0,6.0,57,0.00,,,0.00,Rainwise IP-100,2013-04-30 17:42:00,
2013-04-30 13:47:00,71.1,53.5,29.24,SSW,202,4.0,9.0,54,0.00,,,0.00,Rainwise IP-100,2013-04-30 17:47:00,
2013-04-30 13:52:00,70.8,53.0,29.24,SSW,202,2.0,6.0,53,0.00,,,0.00,Rainwise IP-100,2013-04-30 17:52:00,
2013-04-30 13:57:00,71.2,54.0,29.24,ESE,112,2.0,6.0,55,0.00,,,0.00,Rainwise IP-100,2013-04-30 17:57:00,
2013-04-30 14:02:00,70.4,55.0,29.23,NW,315,4.0,7.0,58,0.00,,,0.00,Rainwise IP-100,2013-04-30 18:02:00,
2013-04-30 14:07:00,70.7,54.0,29.23,NNW,337,2.0,6.0,56,0.00,,,0.00,Rainwise IP-100,2013-04-30 18:07:00,
2013-04-30 14:12:00,70.8,54.5,29.23,NW,315,2.0,6.0,56,0.00,,,0.00,Rainwise IP-100,2013-04-30 18:12:00,
2013-04-30 14:17:00,70.5,53.5,29.23,NW,315,2.0,6.0,55,0.00,,,0.00,Rainwise IP-100,2013-04-30 18:17:00,
2013-04-30 14:22:00,70.6,53.5,29.23,NE,45,1.0,3.0,55,0.00,,,0.00,Rainwise IP-100,2013-04-30 18:22:00,
2013-04-30 14:27:00,70.3,56.5,29.24,NNE,22,5.0,7.0,61,0.00,,,0.00,Rainwise IP-100,2013-04-30 18:27:00,
2013-04-30 14:32:00,70.3,55.0,29.24,NNW,337,3.0,8.0,58,0.00,,,0.00,Rainwise IP-100,2013-04-30 18:32:00,
2013-04-30 14:37:00,69.9,57.0,29.23,NE,45,5.0,8.0,63,0.00,,,0.00,Rainwise IP-100,2013-04-30 18:37:00,
2013-04-30 14:43:00,69.2,54.5,29.23,NNE,22,5.0,8.0,60,0.00,,,0.00,Rainwise IP-100,2013-04-30 18:43:00,
2013-04-30 14:48:00,68.6,54.5,29.23,North,360,4.0,9.0,62,0.00,,,0.00,Rainwise IP-100,2013-04-30 18:48:00,
2013-04-30 14:53:00,68.9,56.0,29.23,North,360,4.0,7.0,64,0.00,,,0.00,Rainwise IP-100,2013-04-30 18:53:00,
2013-04-30 14:58:00,68.7,55.0,29.23,NE,45,5.0,10.0,63,0.00,,,0.00,Rainwise IP-100,2013-04-30 18:58:00,
2013-04-30 15:03:00,68.8,56.0,29.23,NE,45,4.0,7.0,64,0.00,,,0.00,Rainwise IP-100,2013-04-30 19:03:00,
2013-04-30 15:08:00,68.6,56.0,29.23,NE,45,4.0,7.0,64,0.00,,,0.00,Rainwise IP-100,2013-04-30 19:08:00,
2013-04-30 15:13:00,68.5,56.5,29.22,NE,45,5.0,6.0,66,0.00,,,0.00,Rainwise IP-100,2013-04-30 19:13:00,
2013-04-30 15:18:00,68.3,56.0,29.22,NE,45,2.0,6.0,64,0.00,,,0.00,Rainwise IP-100,2013-04-30 19:18:00,
2013-04-30 15:23:00,68.3,56.0,29.22,North,360,5.0,7.0,64,0.00,,,0.00,Rainwise IP-100,2013-04-30 19:23:00,
2013-04-30 15:28:00,68.2,54.5,29.22,North,360,6.0,6.0,63,0.00,,,0.00,Rainwise IP-100,2013-04-30 19:28:00,
2013-04-30 15:33:00,67.7,56.0,29.21,North,360,4.0,9.0,66,0.00,,,0.00,Rainwise IP-100,2013-04-30 19:33:00,
2013-04-30 15:38:00,68.8,55.0,29.22,NE,45,4.0,8.0,62,0.00,,,0.00,Rainwise IP-100,2013-04-30 19:38:00,
2013-04-30 15:44:00,70.3,56.5,29.22,NE,45,4.0,7.0,61,0.00,,,0.00,Rainwise IP-100,2013-04-30 19:44:00,
2013-04-30 15:49:00,69.9,56.0,29.22,NE,45,4.0,8.0,61,0.00,,,0.00,Rainwise IP-100,2013-04-30 19:49:00,
2013-04-30 15:54:00,69.6,56.0,29.22,NE,45,3.0,9.0,62,0.00,,,0.00,Rainwise IP-100,2013-04-30 19:54:00,
2013-04-30 15:59:00,69.1,56.0,29.22,NNE,22,7.0,9.0,63,0.00,,,0.00,Rainwise IP-100,2013-04-30 19:59:00,
2013-04-30 16:04:00,69.4,56.5,29.22,NNE,22,4.0,8.0,64,0.00,,,0.00,Rainwise IP-100,2013-04-30 20:04:00,
2013-04-30 16:09:00,70.2,55.0,29.22,North,360,5.0,8.0,59,0.00,,,0.00,Rainwise IP-100,2013-04-30 20:09:00,
2013-04-30 16:14:00,70.4,57.0,29.23,NNE,22,3.0,7.0,63,0.00,,,0.00,Rainwise IP-100,2013-04-30 20:14:00,
2013-04-30 16:19:00,69.6,56.0,29.22,NNE,22,4.0,9.0,62,0.00,,,0.00,Rainwise IP-100,2013-04-30 20:19:00,
2013-04-30 16:24:00,69.7,56.0,29.22,NE,45,4.0,8.0,61,0.00,,,0.00,Rainwise IP-100,2013-04-30 20:24:00,
2013-04-30 16:29:00,70.4,55.0,29.22,North,360,6.0,6.0,59,0.00,,,0.00,Rainwise IP-100,2013-04-30 20:29:00,
2013-04-30 16:34:00,70.5,55.0,29.22,NE,45,4.0,7.0,59,0.00,,,0.00,Rainwise IP-100,2013-04-30 20:34:00,
2013-04-30 16:39:00,70.5,56.0,29.22,NE,45,7.0,7.0,60,0.00,,,0.00,Rainwise IP-100,2013-04-30 20:39:00,
2013-04-30 16:45:00,70.6,56.5,29.22,East,90,1.0,7.0,61,0.00,,,0.00,Rainwise IP-100,2013-04-30 20:45:00,
2013-04-30 16:50:00,70.4,57.0,29.22,ENE,67,2.0,6.0,62,0.00,,,0.00,Rainwise IP-100,2013-04-30 20:50:00,
2013-04-30 16:55:00,70.4,56.0,29.22,NNE,22,6.0,6.0,60,0.00,,,0.00,Rainwise IP-100,2013-04-30 20:55:00,
2013-04-30 17:00:00,71.0,56.0,29.21,North,360,4.0,9.0,59,0.00,,,0.00,Rainwise IP-100,2013-04-30 21:00:00,
2013-04-30 17:05:00,71.3,56.5,29.22,NE,45,2.0,6.0,60,0.00,,,0.00,Rainwise IP-100,2013-04-30 21:05:00,
2013-04-30 17:10:00,70.9,56.0,29.22,ENE,67,2.0,6.0,59,0.00,,,0.00,Rainwise IP-100,2013-04-30 21:10:00,
2013-04-30 17:15:00,70.7,54.5,29.22,NNE,22,4.0,6.0,57,0.00,,,0.00,Rainwise IP-100,2013-04-30 21:15:00,
2013-04-30 17:20:00,70.4,55.0,29.22,NE,45,3.0,7.0,59,0.00,,,0.00,Rainwise IP-100,2013-04-30 21:20:00,
2013-04-30 17:25:00,70.1,57.0,29.21,NE,45,4.0,6.0,64,0.00,,,0.00,Rainwise IP-100,2013-04-30 21:25:00,
2013-04-30 17:30:00,69.7,55.0,29.20,NE,45,4.0,8.0,60,0.00,,,0.00,Rainwise IP-100,2013-04-30 21:30:00,
2013-04-30 17:35:00,68.9,55.0,29.19,NNE,22,3.0,10.0,62,0.00,,,0.00,Rainwise IP-100,2013-04-30 21:35:00,
2013-04-30 17:40:00,68.4,55.0,29.19,NE,45,2.0,8.0,63,0.00,,,0.00,Rainwise IP-100,2013-04-30 21:40:00,
2013-04-30 17:46:00,68.1,54.5,29.18,NE,45,3.0,7.0,62,0.00,,,0.00,Rainwise IP-100,2013-04-30 21:46:00,
2013-04-30 17:51:00,67.9,56.0,29.18,North,360,6.0,6.0,65,0.00,,,0.00,Rainwise IP-100,2013-04-30 21:51:00,
2013-04-30 17:56:00,68.0,56.0,29.18,NNE,22,4.0,7.0,65,0.00,,,0.00,Rainwise IP-100,2013-04-30 21:56:00,
2013-04-30 18:01:00,67.9,54.5,29.17,NE,45,4.0,7.0,63,0.00,,,0.00,Rainwise IP-100,2013-04-30 22:01:00,
2013-04-30 18:06:00,68.0,55.0,29.17,East,90,4.0,6.0,64,0.00,,,0.00,Rainwise IP-100,2013-04-30 22:06:00,
2013-04-30 18:11:00,68.0,54.5,29.17,NE,45,4.0,6.0,63,0.00,,,0.00,Rainwise IP-100,2013-04-30 22:11:00,
2013-04-30 18:16:00,67.7,55.0,29.17,NE,45,2.0,8.0,64,0.00,,,0.00,Rainwise IP-100,2013-04-30 22:16:00,
2013-04-30 18:21:00,67.6,55.0,29.17,ENE,67,2.0,4.0,65,0.00,,,0.00,Rainwise IP-100,2013-04-30 22:21:00,
2013-04-30 18:26:00,67.7,55.0,29.16,NE,45,2.0,5.0,65,0.00,,,0.00,Rainwise IP-100,2013-04-30 22:26:00,
2013-04-30 18:31:00,67.7,56.0,29.16,NE,45,1.0,4.0,66,0.00,,,0.00,Rainwise IP-100,2013-04-30 22:31:00,
2013-04-30 18:36:00,68.1,54.5,29.16,NNE,22,3.0,6.0,62,0.00,,,0.00,Rainwise IP-100,2013-04-30 22:36:00,
2013-04-30 18:41:00,68.3,56.5,29.16,East,90,1.0,7.0,65,0.00,,,0.00,Rainwise IP-100,2013-04-30 22:41:00,
2013-04-30 18:47:00,68.1,55.0,29.16,ESE,112,1.0,4.0,64,0.00,,,0.00,Rainwise IP-100,2013-04-30 22:47:00,
2013-04-30 18:52:00,68.0,55.0,29.15,East,90,3.0,5.0,64,0.00,,,0.00,Rainwise IP-100,2013-04-30 22:52:00,
2013-04-30 18:57:00,67.8,54.5,29.15,East,90,4.0,8.0,63,0.00,,,0.00,Rainwise IP-100,2013-04-30 22:57:00,
2013-04-30 19:02:00,67.9,55.0,29.13,ESE,112,5.0,11.0,64,0.00,,,0.00,Rainwise IP-100,2013-04-30 23:02:00,
2013-04-30 19:07:00,68.9,53.0,29.13,SE,135,7.0,11.0,57,0.00,,,0.00,Rainwise IP-100,2013-04-30 23:07:00,
2013-04-30 19:12:00,69.8,52.0,29.13,SE,135,4.0,11.0,53,0.00,,,0.00,Rainwise IP-100,2013-04-30 23:12:00,
2013-04-30 19:17:00,70.3,51.0,29.14,ESE,112,6.0,14.0,51,0.00,,,0.00,Rainwise IP-100,2013-04-30 23:17:00,
2013-04-30 19:22:00,70.3,51.0,29.15,South,180,6.0,10.0,51,0.00,,,0.00,Rainwise IP-100,2013-04-30 23:22:00,
2013-04-30 19:27:00,70.2,51.0,29.16,SSE,157,6.0,9.0,52,0.00,,,0.00,Rainwise IP-100,2013-04-30 23:27:00,
2013-04-30 19:32:00,69.9,52.0,29.17,South,180,6.0,10.0,53,0.00,,,0.00,Rainwise IP-100,2013-04-30 23:32:00,
2013-04-30 19:37:00,69.7,50.5,29.17,SSE,157,6.0,17.0,51,0.00,,,0.00,Rainwise IP-100,2013-04-30 23:37:00,
2013-04-30 19:42:00,69.3,50.5,29.17,SE,135,7.0,12.0,52,0.00,,,0.00,Rainwise IP-100,2013-04-30 23:42:00,
2013-04-30 19:48:00,69.2,50.5,29.18,SSE,157,5.0,11.0,51,0.00,,,0.00,Rainwise IP-100,2013-04-30 23:48:00,
2013-04-30 19:53:00,68.9,51.0,29.18,SE,135,4.0,12.0,53,0.00,,,0.00,Rainwise IP-100,2013-04-30 23:53:00,
2013-04-30 19:58:00,68.7,50.5,29.19,South,180,6.0,14.0,53,0.00,,,0.00,Rainwise IP-100,2013-04-30 23:58:00,
2013-04-30 20:03:00,68.3,51.0,29.19,South,180,2.0,9.0,54,0.00,,,0.00,Rainwise IP-100,2013-05-01 00:03:00,
2013-04-30 20:08:00,67.9,51.0,29.19,SSE,157,7.0,12.0,55,0.00,,,0.00,Rainwise IP-100,2013-05-01 00:08:00,
2013-04-30 20:13:00,67.8,52.0,29.19,SSE,157,4.0,14.0,56,0.00,,,0.00,Rainwise IP-100,2013-05-01 00:13:00,
2013-04-30 20:18:00,67.5,51.0,29.18,South,180,7.0,11.0,56,0.00,,,0.00,Rainwise IP-100,2013-05-01 00:18:00,
2013-04-30 20:23:00,67.3,51.0,29.18,SSE,157,4.0,12.0,56,0.00,,,0.00,Rainwise IP-100,2013-05-01 00:23:00,
2013-04-30 20:28:00,67.0,51.0,29.18,SSE,157,10.0,11.0,57,0.00,,,0.00,Rainwise IP-100,2013-05-01 00:28:00,
2013-04-30 20:33:00,66.9,51.0,29.18,South,180,6.0,14.0,57,0.00,,,0.00,Rainwise IP-100,2013-05-01 00:33:00,
2013-04-30 20:38:00,66.7,51.0,29.18,SSE,157,6.0,11.0,58,0.00,,,0.00,Rainwise IP-100,2013-05-01 00:38:00,
2013-04-30 20:43:00,66.4,51.0,29.18,SSE,157,4.0,12.0,59,0.00,,,0.00,Rainwise IP-100,2013-05-01 00:43:00,
2013-04-30 20:49:00,66.3,51.0,29.19,SSE,157,6.0,11.0,59,0.00,,,0.00,Rainwise IP-100,2013-05-01 00:49:00,
2013-04-30 20:54:00,65.9,51.0,29.19,SSE,157,4.0,16.0,60,0.00,,,0.00,Rainwise IP-100,2013-05-01 00:54:00,
2013-04-30 20:59:00,65.7,51.0,29.19,SSE,157,4.0,10.0,60,0.00,,,0.00,Rainwise IP-100,2013-05-01 00:59:00,
2013-04-30 21:04:00,65.4,51.0,29.19,SSE,157,7.0,11.0,61,0.00,,,0.00,Rainwise IP-100,2013-05-01 01:04:00,
2013-04-30 21:09:00,65.1,51.0,29.19,ESE,112,6.0,11.0,62,0.00,,,0.00,Rainwise IP-100,2013-05-01 01:09:00,
2013-04-30 21:14:00,64.9,52.0,29.19,SE,135,3.0,8.0,63,0.00,,,0.00,Rainwise IP-100,2013-05-01 01:14:00,
2013-04-30 21:19:00,64.5,52.0,29.19,SSE,157,4.0,8.0,64,0.00,,,0.00,Rainwise IP-100,2013-05-01 01:19:00,
2013-04-30 21:24:00,64.3,51.0,29.19,SE,135,4.0,8.0,63,0.00,,,0.00,Rainwise IP-100,2013-05-01 01:24:00,
2013-04-30 21:29:00,64.0,52.0,29.19,SE,135,7.0,8.0,65,0.00,,,0.00,Rainwise IP-100,2013-05-01 01:29:00,
2013-04-30 21:34:00,63.6,51.0,29.19,SSE,157,4.0,9.0,65,0.00,,,0.00,Rainwise IP-100,2013-05-01 01:34:00,
2013-04-30 21:39:00,63.3,53.0,29.19,South,180,4.0,6.0,67,0.00,,,0.00,Rainwise IP-100,2013-05-01 01:39:00,
2013-04-30 21:44:00,63.1,51.0,29.19,South,180,5.0,8.0,66,0.00,,,0.00,Rainwise IP-100,2013-05-01 01:44:00,
2013-04-30 21:50:00,62.9,52.0,29.19,SSE,157,3.0,9.0,67,0.00,,,0.00,Rainwise IP-100,2013-05-01 01:50:00,
2013-04-30 21:55:00,62.8,52.0,29.19,SSE,157,5.0,6.0,67,0.00,,,0.00,Rainwise IP-100,2013-05-01 01:55:00,
2013-04-30 22:00:00,62.7,51.0,29.20,South,180,6.0,6.0,67,0.00,,,0.00,Rainwise IP-100,2013-05-01 02:00:00,
2013-04-30 22:05:00,62.6,51.0,29.20,South,180,6.0,7.0,67,0.00,,,0.00,Rainwise IP-100,2013-05-01 02:05:00,
2013-04-30 22:10:00,62.6,52.0,29.21,South,180,2.0,7.0,68,0.00,,,0.00,Rainwise IP-100,2013-05-01 02:10:00,
2013-04-30 22:15:00,62.5,51.0,29.21,South,180,3.0,6.0,67,0.00,,,0.00,Rainwise IP-100,2013-05-01 02:15:00,
2013-04-30 22:20:00,62.4,52.0,29.21,South,180,2.0,4.0,68,0.00,,,0.00,Rainwise IP-100,2013-05-01 02:20:00,
2013-04-30 22:25:00,62.2,51.0,29.21,SSE,157,1.0,4.0,68,0.00,,,0.00,Rainwise IP-100,2013-05-01 02:25:00,
2013-04-30 22:30:00,62.0,52.0,29.21,SSE,157,1.0,3.0,69,0.00,,,0.00,Rainwise IP-100,2013-05-01 02:30:00,
2013-04-30 22:35:00,61.8,52.0,29.21,South,180,2.0,5.0,69,0.00,,,0.00,Rainwise IP-100,2013-05-01 02:35:00,
2013-04-30 22:40:00,61.6,52.0,29.21,South,180,1.0,5.0,70,0.00,,,0.00,Rainwise IP-100,2013-05-01 02:40:00,
2013-04-30 22:45:00,61.6,52.0,29.21,SSE,157,2.0,4.0,70,0.00,,,0.00,Rainwise IP-100,2013-05-01 02:45:00,
2013-04-30 22:51:00,61.4,52.0,29.21,SSE,157,3.0,4.0,70,0.00,,,0.00,Rainwise IP-100,2013-05-01 02:51:00,
2013-04-30 22:56:00,61.2,51.0,29.21,SSE,157,1.0,4.0,71,0.00,,,0.00,Rainwise IP-100,2013-05-01 02:56:00,
2013-04-30 23:01:00,60.9,51.0,29.21,SE,135,2.0,3.0,71,0.00,,,0.00,Rainwise IP-100,2013-05-01 03:01:00,
2013-04-30 23:06:00,60.8,52.0,29.21,SSE,157,1.0,4.0,72,0.00,,,0.00,Rainwise IP-100,2013-05-01 03:06:00,
2013-04-30 23:11:00,60.6,52.0,29.21,SSE,157,2.0,3.0,73,0.00,,,0.00,Rainwise IP-100,2013-05-01 03:11:00,
2013-04-30 23:16:00,60.5,52.0,29.20,SSE,157,1.0,3.0,73,0.00,,,0.00,Rainwise IP-100,2013-05-01 03:16:00,
2013-04-30 23:21:00,60.3,52.0,29.20,SE,135,2.0,3.0,74,0.00,,,0.00,Rainwise IP-100,2013-05-01 03:21:00,
2013-04-30 23:26:00,60.0,52.0,29.20,SSE,157,2.0,7.0,75,0.00,,,0.00,Rainwise IP-100,2013-05-01 03:26:00,
2013-04-30 23:31:00,59.9,51.0,29.20,SSE,157,2.0,4.0,74,0.00,,,0.00,Rainwise IP-100,2013-05-01 03:31:00,
2013-04-30 23:36:00,59.9,52.0,29.20,SSE,157,2.0,4.0,75,0.00,,,0.00,Rainwise IP-100,2013-05-01 03:36:00,
2013-04-30 23:41:00,59.9,51.0,29.20,SSE,157,2.0,4.0,74,0.00,,,0.00,Rainwise IP-100,2013-05-01 03:41:00,
2013-04-30 23:46:00,59.9,51.0,29.20,South,180,2.0,3.0,74,0.00,,,0.00,Rainwise IP-100,2013-05-01 03:46:00,
2013-04-30 23:52:00,59.8,51.0,29.20,SE,135,3.0,3.0,74,0.00,,,0.00,Rainwise IP-100,2013-05-01 03:52:00,
2013-04-30 23:57:00,59.8,51.0,29.20,SE,135,3.0,4.0,74,0.00,,,0.00,Rainwise IP-100,2013-05-01 03:57:00,